YF9UAG-15 Weather Reports


time (UTC)temp
C
wind
direction
speed
KPH
gust
KPH
rain 1hr
cm
rain 24hr
cm
rain mn
cm
humidity
%
barometer
mb
20260506104554 29 0.0 0.0 0.00 0.00 0.00 100 1006.7
20260506104353 29 0.0 0.0 0.00 0.00 0.00 100 1006.8
20260506104152 30 0.0 0.0 0.00 0.00 0.00 100 1006.7
20260506103951 30 0.0 0.0 0.00 0.00 0.00 100 1006.7
20260506103750 30 0.0 0.0 0.00 0.00 0.00 100 1006.7
20260506103549 30 0.0 0.0 0.00 0.00 0.00 100 1006.6
20260506103348 30 0.0 0.0 0.00 0.00 0.00 100 1006.6
20260506103147 29 0.0 0.0 0.00 0.00 0.00 100 1006.5
20260506102946 29 0.0 0.0 0.00 0.00 0.00 100 1006.6
20260506102745 29 0.0 0.0 0.00 0.00 0.00 100 1006.6
20260506102544 29 0.0 0.0 0.00 0.00 0.00 100 1006.5
20260506102343 29 0.0 0.0 0.00 0.00 0.00 100 1006.4
20260506102142 30 0.0 0.0 0.00 0.00 0.00 100 1006.4
20260506101942 30 0.0 0.0 0.00 0.00 0.00 100 1006.5
20260506101741 30 0.0 0.0 0.00 0.00 0.00 100 1006.4
20260506101540 30 0.0 0.0 0.00 0.00 0.00 100 1006.4
20260506101339 30 0.0 0.0 0.00 0.00 0.00 100 1006.4
20260506101138 30 0.0 0.0 0.00 0.00 0.00 100 1006.4
20260506100937 30 0.0 0.0 0.00 0.00 0.00 100 1006.3
20260506100736 30 0.0 0.0 0.00 0.00 0.00 100 1006.3
20260506100535 30 0.0 0.0 0.00 0.00 0.00 100 1006.2
20260506100334 30 0.0 0.0 0.00 0.00 0.00 100 1006.1
20260506100133 30 0.0 0.0 0.00 0.00 0.00 100 1006.1
20260506095932 30 0.0 0.0 0.00 0.00 0.00 100 1006.0
20260506095731 30 0.0 0.0 0.00 0.00 0.00 100 1006.1
20260506095531 30 0.0 0.0 0.00 0.00 0.00 100 1006.0
20260506095329 30 0.0 0.0 0.00 0.00 0.00 100 1006.1
20260506095130 30 0.0 0.0 0.00 0.00 0.00 100 1005.9
20260506094928 30 0.0 0.0 0.00 0.00 0.00 100 1005.9
20260506094726 30 0.0 0.0 0.00 0.00 0.00 100 1005.8
20260506094527 30 0.0 0.0 0.00 0.00 0.00 100 1005.8
20260506094325 30 0.0 0.0 0.00 0.00 0.00 100 1005.8
20260506094124 30 0.0 0.0 0.00 0.00 0.00 100 1005.7
20260506093925 30 0.0 0.0 0.00 0.00 0.00 100 1005.7
20260506093722 30 0.0 0.0 0.00 0.00 0.00 100 1005.7
20260506093521 30 0.0 0.0 0.00 0.00 0.00 100 1005.6
20260506093320 30 0.0 0.0 0.00 0.00 0.00 100 1005.6
20260506093119 30 0.0 0.0 0.00 0.00 0.00 100 1005.5
20260506092918 31 0.0 0.0 0.00 0.00 0.00 100 1005.5
20260506092717 31 0.0 0.0 0.00 0.00 0.00 100 1005.5
20260506092516 30 0.0 0.0 0.00 0.00 0.00 100 1005.4
20260506092315 30 0.0 0.0 0.00 0.00 0.00 100 1005.3
20260506092114 30 0.0 0.0 0.00 0.00 0.00 100 1005.4
20260506091913 30 0.0 0.0 0.00 0.00 0.00 100 1005.3
20260506091713 30 0.0 0.0 0.00 0.00 0.00 100 1005.3
20260506091511 31 0.0 0.0 0.00 0.00 0.00 100 1005.2
20260506091310 30 0.0 0.0 0.00 0.00 0.00 100 1005.2
20260506091109 30 0.0 0.0 0.00 0.00 0.00 100 1005.1
20260506090909 30 0.0 0.0 0.00 0.00 0.00 100 1005.1
20260506090708 30 0.0 0.0 0.00 0.00 0.00 100 1005.0
20260506090507 30 0.0 0.0 0.00 0.00 0.00 100 1005.1
20260506090306 30 0.0 0.0 0.00 0.00 0.00 100 1005.0
20260506090105 30 0.0 0.0 0.00 0.00 0.00 100 1005.0
20260506085905 30 0.0 0.0 0.00 0.00 0.00 100 1005.0
20260506085703 30 0.0 0.0 0.00 0.00 0.00 100 1005.0
20260506085504 31 0.0 0.0 0.00 0.00 0.00 99 1005.1
20260506085301 31 0.0 0.0 0.00 0.00 0.00 99 1005.1
20260506085100 31 0.0 0.0 0.00 0.00 0.00 99 1005.1
20260506084859 31 0.0 0.0 0.00 0.00 0.00 100 1005.1
20260506084658 31 0.0 0.0 0.00 0.00 0.00 99 1005.0
20260506084457 31 0.0 0.0 0.00 0.00 0.00 98 1005.0
20260506084256 31 0.0 0.0 0.00 0.00 0.00 98 1005.0
20260506084055 31 0.0 0.0 0.00 0.00 0.00 98 1005.1
20260506083854 31 0.0 0.0 0.00 0.00 0.00 98 1005.0
20260506083654 31 0.0 0.0 0.00 0.00 0.00 96 1004.9
20260506083453 31 0.0 0.0 0.00 0.00 0.00 96 1004.9
20260506083252 31 0.0 0.0 0.00 0.00 0.00 96 1004.9
20260506083051 32 0.0 0.0 0.00 0.00 0.00 95 1004.8
20260506082850 31 0.0 0.0 0.00 0.00 0.00 97 1004.8
20260506082649 31 0.0 0.0 0.00 0.00 0.00 97 1004.7
20260506082448 31 0.0 0.0 0.00 0.00 0.00 96 1004.6
20260506082247 32 0.0 0.0 0.00 0.00 0.00 95 1004.5
20260506082046 32 0.0 0.0 0.00 0.00 0.00 96 1004.5
20260506081845 31 0.0 0.0 0.00 0.00 0.00 99 1004.4
20260506081644 31 0.0 0.0 0.00 0.00 0.00 98 1004.4
20260506081443 31 0.0 0.0 0.00 0.00 0.00 97 1004.3
20260506081242 31 0.0 0.0 0.00 0.00 0.00 98 1004.3
20260506081041 31 0.0 0.0 0.00 0.00 0.00 98 1004.2
20260506080840 31 0.0 0.0 0.00 0.00 0.00 98 1004.2
20260506080639 31 0.0 0.0 0.00 0.00 0.00 97 1004.1
20260506080439 31 0.0 0.0 0.00 0.00 0.00 98 1004.1
20260506080238 31 0.0 0.0 0.00 0.00 0.00 97 1004.1
20260506073424 32 0.0 0.0 0.00 0.00 0.00 94 1003.6
20260506073224 31 0.0 0.0 0.00 0.00 0.00 92 1003.6
20260506073022 32 0.0 0.0 0.00 0.00 0.00 91 1003.4
20260506072822 32 0.0 0.0 0.00 0.00 0.00 91 1003.4
20260506072621 32 0.0 0.0 0.00 0.00 0.00 89 1003.3
20260506072420 32 0.0 0.0 0.00 0.00 0.00 88 1003.3
20260506072219 32 0.0 0.0 0.00 0.00 0.00 86 1003.3
20260506072018 32 0.0 0.0 0.00 0.00 0.00 84 1003.3
20260506071818 32 0.0 0.0 0.00 0.00 0.00 80 1003.3
20260506071616 32 0.0 0.0 0.00 0.00 0.00 77 1003.3
20260506071415 33 0.0 0.0 0.00 0.00 0.00 76 1003.3
20260506071215 32 0.0 0.0 0.00 0.00 0.00 77 1003.3
20260506071013 32 0.0 0.0 0.00 0.00 0.00 79 1003.3
20260506070812 32 0.0 0.0 0.00 0.00 0.00 80 1003.3
20260506070611 32 0.0 0.0 0.00 0.00 0.00 80 1003.2
20260506070410 32 0.0 0.0 0.00 0.00 0.00 79 1003.2
20260506070209 32 0.0 0.0 0.00 0.00 0.00 79 1003.1
20260506062351 33 0.0 0.0 0.00 0.00 0.00 74 1002.7
20260506062150 33 0.0 0.0 0.00 0.00 0.00 74 1002.8
20260506061950 33 0.0 0.0 0.00 0.00 0.00 73 1002.8
20260506061749 33 0.0 0.0 0.00 0.00 0.00 73 1002.8
20260506061548 33 0.0 0.0 0.00 0.00 0.00 73 1002.8
20260506061347 33 0.0 0.0 0.00 0.00 0.00 74 1002.9
20260506061147 33 0.0 0.0 0.00 0.00 0.00 75 1002.8
20260506060945 33 0.0 0.0 0.00 0.00 0.00 74 1002.8
20260506060746 33 0.0 0.0 0.00 0.00 0.00 73 1002.9
20260506060543 33 0.0 0.0 0.00 0.00 0.00 74 1002.8
20260506060342 33 0.0 0.0 0.00 0.00 0.00 75 1002.9
20260506060142 33 0.0 0.0 0.00 0.00 0.00 75 1002.9
20260506051318 33 0.0 0.0 0.00 0.00 0.00 77 1003.2
20260506051117 33 0.0 0.0 0.00 0.00 0.00 77 1003.2
20260506050917 33 0.0 0.0 0.00 0.00 0.00 76 1003.2
20260506050716 33 0.0 0.0 0.00 0.00 0.00 77 1003.2
20260506050515 33 0.0 0.0 0.00 0.00 0.00 77 1003.3
20260506050314 33 0.0 0.0 0.00 0.00 0.00 77 1003.3
20260506050113 33 0.0 0.0 0.00 0.00 0.00 77 1003.3
20260506045108 33 0.0 0.0 0.00 0.00 0.00 77 1003.4
20260506044907 33 0.0 0.0 0.00 0.00 0.00 77 1003.3
20260506044706 33 0.0 0.0 0.00 0.00 0.00 77 1003.3
20260506044505 33 0.0 0.0 0.00 0.00 0.00 78 1003.4
20260506044304 33 0.0 0.0 0.00 0.00 0.00 78 1003.3
20260506044103 33 0.0 0.0 0.00 0.00 0.00 78 1003.4
20260506043902 33 0.0 0.0 0.00 0.00 0.00 77 1003.5
20260506043701 33 0.0 0.0 0.00 0.00 0.00 77 1003.5
20260506043501 33 0.0 0.0 0.00 0.00 0.00 78 1003.5
20260506043300 33 0.0 0.0 0.00 0.00 0.00 77 1003.5
20260506043059 34 0.0 0.0 0.00 0.00 0.00 74 1003.6
20260506042858 33 0.0 0.0 0.00 0.00 0.00 76 1003.5
20260506042657 34 0.0 0.0 0.00 0.00 0.00 75 1003.6
20260506042456 33 0.0 0.0 0.00 0.00 0.00 76 1003.6
20260506042255 33 0.0 0.0 0.00 0.00 0.00 75 1003.7
20260506042054 34 0.0 0.0 0.00 0.00 0.00 75 1003.7
20260506041853 34 0.0 0.0 0.00 0.00 0.00 74 1003.7
20260506041652 34 0.0 0.0 0.00 0.00 0.00 74 1003.7
20260506041451 34 0.0 0.0 0.00 0.00 0.00 74 1003.8
20260506041250 33 0.0 0.0 0.00 0.00 0.00 74 1003.8
20260506041049 34 0.0 0.0 0.00 0.00 0.00 74 1003.9
20260506040848 33 0.0 0.0 0.00 0.00 0.00 75 1003.9
20260506040647 33 0.0 0.0 0.00 0.00 0.00 75 1003.9
20260506040446 34 0.0 0.0 0.00 0.00 0.00 74 1004.0
20260506040246 34 0.0 0.0 0.00 0.00 0.00 74 1004.1
20260506040045 33 0.0 0.0 0.00 0.00 0.00 74 1004.1
20260506035844 34 0.0 0.0 0.00 0.00 0.00 75 1004.1
20260506035643 34 0.0 0.0 0.00 0.00 0.00 75 1004.2
20260506035442 34 0.0 0.0 0.00 0.00 0.00 74 1004.3
20260506035241 33 0.0 0.0 0.00 0.00 0.00 74 1004.2
20260506035040 34 0.0 0.0 0.00 0.00 0.00 73 1004.3
20260506034839 34 0.0 0.0 0.00 0.00 0.00 73 1004.3
20260506034638 34 0.0 0.0 0.00 0.00 0.00 73 1004.4
20260506034438 35 0.0 0.0 0.00 0.00 0.00 72 1004.4
20260506034236 34 0.0 0.0 0.00 0.00 0.00 74 1004.4
20260506034035 34 0.0 0.0 0.00 0.00 0.00 73 1004.3
20260506033834 34 0.0 0.0 0.00 0.00 0.00 74 1004.5
20260506033633 34 0.0 0.0 0.00 0.00 0.00 74 1004.5
20260506033432 34 0.0 0.0 0.00 0.00 0.00 74 1004.6
20260506033231 34 0.0 0.0 0.00 0.00 0.00 74 1004.6
20260506033030 33 0.0 0.0 0.00 0.00 0.00 76 1004.7
20260506032830 33 0.0 0.0 0.00 0.00 0.00 78 1004.7
20260506032629 33 0.0 0.0 0.00 0.00 0.00 77 1004.8
20260506032428 33 0.0 0.0 0.00 0.00 0.00 76 1004.8
20260506032227 34 0.0 0.0 0.00 0.00 0.00 74 1004.8
20260506032026 35 0.0 0.0 0.00 0.00 0.00 74 1004.8
20260506031825 35 0.0 0.0 0.00 0.00 0.00 73 1004.9
20260506031624 35 0.0 0.0 0.00 0.00 0.00 72 1004.9
20260506031423 34 0.0 0.0 0.00 0.00 0.00 72 1004.9
20260506031222 35 0.0 0.0 0.00 0.00 0.00 71 1004.9
20260506031021 35 0.0 0.0 0.00 0.00 0.00 71 1004.9
20260506030820 35 0.0 0.0 0.00 0.00 0.00 70 1005.0
20260506030619 35 0.0 0.0 0.00 0.00 0.00 69 1005.0
20260506030418 35 0.0 0.0 0.00 0.00 0.00 71 1005.0
20260506030217 35 0.0 0.0 0.00 0.00 0.00 70 1005.0
20260506030016 35 0.0 0.0 0.00 0.00 0.00 70 1005.1
20260506025815 34 0.0 0.0 0.00 0.00 0.00 72 1005.1
20260506025615 34 0.0 0.0 0.00 0.00 0.00 74 1005.1
20260506025414 34 0.0 0.0 0.00 0.00 0.00 73 1005.2
20260506025213 34 0.0 0.0 0.00 0.00 0.00 72 1005.3
20260506025012 34 0.0 0.0 0.00 0.00 0.00 73 1005.2
20260506024811 34 0.0 0.0 0.00 0.00 0.00 74 1005.4
20260506024610 34 0.0 0.0 0.00 0.00 0.00 72 1005.3
20260506024409 34 0.0 0.0 0.00 0.00 0.00 72 1005.3
20260506024208 34 0.0 0.0 0.00 0.00 0.00 71 1005.4
20260506024007 33 0.0 0.0 0.00 0.00 0.00 74 1005.5
20260506023806 33 0.0 0.0 0.00 0.00 0.00 72 1005.5
20260506023605 34 0.0 0.0 0.00 0.00 0.00 74 1005.5
20260506023404 34 0.0 0.0 0.00 0.00 0.00 73 1005.6
20260506023203 34 0.0 0.0 0.00 0.00 0.00 72 1005.7
20260506023002 34 0.0 0.0 0.00 0.00 0.00 72 1005.7
20260506022801 34 0.0 0.0 0.00 0.00 0.00 71 1005.7
20260506022600 34 0.0 0.0 0.00 0.00 0.00 71 1005.7
20260506022359 34 0.0 0.0 0.00 0.00 0.00 71 1005.8
20260506022158 34 0.0 0.0 0.00 0.00 0.00 71 1005.8
20260506021958 34 0.0 0.0 0.00 0.00 0.00 71 1005.9
20260506021757 34 0.0 0.0 0.00 0.00 0.00 70 1005.9
20260506021556 33 0.0 0.0 0.00 0.00 0.00 71 1006.0
20260506021355 33 0.0 0.0 0.00 0.00 0.00 73 1006.0
20260506021154 33 0.0 0.0 0.00 0.00 0.00 72 1006.0
20260506020953 33 0.0 0.0 0.00 0.00 0.00 74 1006.0
20260506020752 33 0.0 0.0 0.00 0.00 0.00 74 1006.2
20260506020551 33 0.0 0.0 0.00 0.00 0.00 74 1006.2
20260506020350 33 0.0 0.0 0.00 0.00 0.00 73 1006.2
20260506020149 33 0.0 0.0 0.00 0.00 0.00 73 1006.3
20260506015948 33 0.0 0.0 0.00 0.00 0.00 75 1006.3
20260506015747 34 0.0 0.0 0.00 0.00 0.00 75 1006.3
20260506015546 33 0.0 0.0 0.00 0.00 0.00 75 1006.4
20260506015345 34 0.0 0.0 0.00 0.00 0.00 75 1006.4
20260506015144 34 0.0 0.0 0.00 0.00 0.00 76 1006.4
20260506014943 33 0.0 0.0 0.00 0.00 0.00 74 1006.4
20260506014742 33 0.0 0.0 0.00 0.00 0.00 75 1006.5
20260506014541 33 0.0 0.0 0.00 0.00 0.00 77 1006.5
20260506014341 33 0.0 0.0 0.00 0.00 0.00 78 1006.6
20260506014140 33 0.0 0.0 0.00 0.00 0.00 78 1006.8
20260506013939 33 0.0 0.0 0.00 0.00 0.00 77 1006.6
20260506013738 33 0.0 0.0 0.00 0.00 0.00 77 1006.6
20260506013537 33 0.0 0.0 0.00 0.00 0.00 80 1006.7
20260506013336 33 0.0 0.0 0.00 0.00 0.00 78 1006.7
20260506013135 33 0.0 0.0 0.00 0.00 0.00 82 1006.8
20260506012934 33 0.0 0.0 0.00 0.00 0.00 79 1006.8
20260506012733 33 0.0 0.0 0.00 0.00 0.00 79 1006.8
20260506012532 33 0.0 0.0 0.00 0.00 0.00 80 1007.1
20260506012331 33 0.0 0.0 0.00 0.00 0.00 80 1007.0
20260506012130 33 0.0 0.0 0.00 0.00 0.00 81 1007.1
20260506011929 33 0.0 0.0 0.00 0.00 0.00 82 1007.1
20260506011728 33 0.0 0.0 0.00 0.00 0.00 83 1007.2
20260506011527 32 0.0 0.0 0.00 0.00 0.00 86 1007.2
20260506011326 32 0.0 0.0 0.00 0.00 0.00 86 1007.1
20260506011126 32 0.0 0.0 0.00 0.00 0.00 87 1007.2
20260506010925 32 0.0 0.0 0.00 0.00 0.00 86 1007.3
20260506010724 32 0.0 0.0 0.00 0.00 0.00 87 1007.3
20260506010523 33 0.0 0.0 0.00 0.00 0.00 86 1007.4
20260506010322 32 0.0 0.0 0.00 0.00 0.00 86 1007.4
20260506010121 33 0.0 0.0 0.00 0.00 0.00 86 1007.5
20260506005920 33 0.0 0.0 0.00 0.00 0.00 85 1007.6
20260506005719 32 0.0 0.0 0.00 0.00 0.00 86 1007.6
20260506005518 33 0.0 0.0 0.00 0.00 0.00 86 1007.7
20260506005317 32 0.0 0.0 0.00 0.00 0.00 88 1007.7
20260506005116 32 0.0 0.0 0.00 0.00 0.00 89 1007.7
20260506004915 32 0.0 0.0 0.00 0.00 0.00 89 1007.8
20260506004714 32 0.0 0.0 0.00 0.00 0.00 91 1007.9
20260506004513 32 0.0 0.0 0.00 0.00 0.00 91 1007.8
20260506004312 32 0.0 0.0 0.00 0.00 0.00 93 1007.8
20260506004111 31 0.0 0.0 0.00 0.00 0.00 95 1007.9
20260506003910 31 0.0 0.0 0.00 0.00 0.00 97 1007.9
20260506003709 31 0.0 0.0 0.00 0.00 0.00 96 1007.9
20260506003509 31 0.0 0.0 0.00 0.00 0.00 97 1007.9
20260506003308 31 0.0 0.0 0.00 0.00 0.00 98 1008.0
20260506003107 31 0.0 0.0 0.00 0.00 0.00 100 1007.9
20260506002906 31 0.0 0.0 0.00 0.00 0.00 99 1007.9
20260506002705 30 0.0 0.0 0.00 0.00 0.00 99 1007.9
20260506002504 31 0.0 0.0 0.00 0.00 0.00 98 1007.9
20260506002305 30 0.0 0.0 0.00 0.00 0.00 100 1007.9
20260506002102 31 0.0 0.0 0.00 0.00 0.00 99 1008.0
20260506001901 30 0.0 0.0 0.00 0.00 0.00 98 1008.0
20260506001700 31 0.0 0.0 0.00 0.00 0.00 97 1008.0
20260506001459 31 0.0 0.0 0.00 0.00 0.00 98 1008.0
20260506001258 31 0.0 0.0 0.00 0.00 0.00 97 1008.0
20260506001057 31 0.0 0.0 0.00 0.00 0.00 98 1008.2
20260506000856 31 0.0 0.0 0.00 0.00 0.00 98 1008.1
20260506000655 31 0.0 0.0 0.00 0.00 0.00 95 1008.2
20260506000454 32 0.0 0.0 0.00 0.00 0.00 93 1008.2
20260506000255 32 0.0 0.0 0.00 0.00 0.00 89 1008.3
20260506000052 33 0.0 0.0 0.00 0.00 0.00 88 1008.3
20260505235852 33 0.0 0.0 0.00 0.00 0.00 88 1008.4
20260505235651 33 0.0 0.0 0.00 0.00 0.00 84 1008.4
20260505235450 32 0.0 0.0 0.00 0.00 0.00 90 1008.4
20260505235249 32 0.0 0.0 0.00 0.00 0.00 92 1008.3
20260505235048 31 0.0 0.0 0.00 0.00 0.00 95 1008.4
20260505234847 31 0.0 0.0 0.00 0.00 0.00 95 1008.4
20260505234646 31 0.0 0.0 0.00 0.00 0.00 97 1008.5
20260505234445 31 0.0 0.0 0.00 0.00 0.00 98 1008.5
20260505234244 31 0.0 0.0 0.00 0.00 0.00 100 1008.4
20260505234043 31 0.0 0.0 0.00 0.00 0.00 100 1008.4
20260505233842 30 0.0 0.0 0.00 0.00 0.00 100 1008.4
20260505233641 30 0.0 0.0 0.00 0.00 0.00 100 1008.4
20260505233440 30 0.0 0.0 0.00 0.00 0.00 100 1008.5
20260505233239 30 0.0 0.0 0.00 0.00 0.00 100 1008.6
20260505233038 30 0.0 0.0 0.00 0.00 0.00 100 1008.5
20260505232837 30 0.0 0.0 0.00 0.00 0.00 100 1008.6
20260505232636 30 0.0 0.0 0.00 0.00 0.00 100 1008.6
20260505232436 29 0.0 0.0 0.00 0.00 0.00 100 1008.6
20260505232235 30 0.0 0.0 0.00 0.00 0.00 100 1008.6
20260505232034 30 0.0 0.0 0.00 0.00 0.00 100 1008.6
20260505231833 29 0.0 0.0 0.00 0.00 0.00 100 1008.7
20260505231632 29 0.0 0.0 0.00 0.00 0.00 100 1008.7
20260505231431 30 0.0 0.0 0.00 0.00 0.00 100 1008.7
20260505231230 29 0.0 0.0 0.00 0.00 0.00 100 1008.7
20260505231029 29 0.0 0.0 0.00 0.00 0.00 100 1008.7
20260505230828 28 0.0 0.0 0.00 0.00 0.00 100 1008.7
20260505230627 28 0.0 0.0 0.00 0.00 0.00 100 1008.8
20260505230426 28 0.0 0.0 0.00 0.00 0.00 100 1008.8
20260505230225 28 0.0 0.0 0.00 0.00 0.00 100 1008.8
20260505230024 29 0.0 0.0 0.00 0.00 0.00 100 1008.7
20260505225823 28 0.0 0.0 0.00 0.00 0.00 100 1008.7
20260505225622 28 0.0 0.0 0.00 0.00 0.00 100 1008.7
20260505225421 28 0.0 0.0 0.00 0.00 0.00 100 1008.7
20260505225220 28 0.0 0.0 0.00 0.00 0.00 100 1008.7
20260505225020 28 0.0 0.0 0.00 0.00 0.00 100 1008.5
20260505224819 28 0.0 0.0 0.00 0.00 0.00 100 1008.4
20260505224618 30 0.0 0.0 0.00 0.00 0.00 100 1008.4
20260505224417 29 0.0 0.0 0.00 0.00 0.00 100 1008.4
20260505224216 28 0.0 0.0 0.00 0.00 0.00 100 1008.4
20260505224015 29 0.0 0.0 0.00 0.00 0.00 100 1008.3
20260505223814 28 0.0 0.0 0.00 0.00 0.00 100 1008.2
20260505223613 28 0.0 0.0 0.00 0.00 0.00 100 1008.2
20260505223412 28 0.0 0.0 0.00 0.00 0.00 100 1008.1
20260505223211 28 0.0 0.0 0.00 0.00 0.00 100 1008.1
20260505223010 29 0.0 0.0 0.00 0.00 0.00 100 1008.1
20260505222809 29 0.0 0.0 0.00 0.00 0.00 100 1008.1
20260505222608 29 0.0 0.0 0.00 0.00 0.00 100 1008.1
20260505222407 29 0.0 0.0 0.00 0.00 0.00 100 1008.0
20260505222206 29 0.0 0.0 0.00 0.00 0.00 100 1008.0
20260505222005 29 0.0 0.0 0.00 0.00 0.00 100 1008.0
20260505221805 29 0.0 0.0 0.00 0.00 0.00 100 1008.0
20260505221604 29 0.0 0.0 0.00 0.00 0.00 100 1008.0
20260505221403 28 0.0 0.0 0.00 0.00 0.00 100 1007.9
20260505221202 28 0.0 0.0 0.00 0.00 0.00 100 1007.9
20260505221001 28 0.0 0.0 0.00 0.00 0.00 100 1007.8
20260505220800 27 0.0 0.0 0.00 0.00 0.00 100 1007.9
20260505220559 27 0.0 0.0 0.00 0.00 0.00 100 1007.8
20260505220358 27 0.0 0.0 0.00 0.00 0.00 100 1007.8
20260505220157 27 0.0 0.0 0.00 0.00 0.00 100 1008.0
20260505215956 27 0.0 0.0 0.00 0.00 0.00 100 1008.0
20260505215755 28 0.0 0.0 0.00 0.00 0.00 100 1007.9
20260505215554 28 0.0 0.0 0.00 0.00 0.00 100 1008.0
20260505215353 28 0.0 0.0 0.00 0.00 0.00 100 1008.0
20260505215152 27 0.0 0.0 0.00 0.00 0.00 100 1007.9
20260505214951 28 0.0 0.0 0.00 0.00 0.00 100 1008.0
20260505214750 28 0.0 0.0 0.00 0.00 0.00 100 1007.9
20260505214549 27 0.0 0.0 0.00 0.00 0.00 100 1007.9
20260505214348 27 0.0 0.0 0.00 0.00 0.00 100 1007.9
20260505214148 28 0.0 0.0 0.00 0.00 0.00 100 1007.9
20260505213947 28 0.0 0.0 0.00 0.00 0.00 100 1007.9
20260505213746 28 0.0 0.0 0.00 0.00 0.00 100 1008.0
20260505213545 28 0.0 0.0 0.00 0.00 0.00 100 1008.0
20260505213344 27 0.0 0.0 0.00 0.00 0.00 100 1008.1
20260505213143 27 0.0 0.0 0.00 0.00 0.00 100 1008.1
20260505212942 27 0.0 0.0 0.00 0.00 0.00 100 1008.0
20260505212741 27 0.0 0.0 0.00 0.00 0.00 100 1008.0
20260505212540 27 0.0 0.0 0.00 0.00 0.00 100 1008.0
20260505212339 27 0.0 0.0 0.00 0.00 0.00 100 1007.9
20260505212138 27 0.0 0.0 0.00 0.00 0.00 100 1008.0
20260505211937 27 0.0 0.0 0.00 0.00 0.00 100 1007.9
20260505211736 27 0.0 0.0 0.00 0.00 0.00 100 1008.0
20260505211535 26 0.0 0.0 0.00 0.00 0.00 100 1008.0
20260505211334 27 0.0 0.0 0.00 0.00 0.00 100 1008.0
20260505211133 27 0.0 0.0 0.00 0.00 0.00 100 1007.9
20260505210932 27 0.0 0.0 0.00 0.00 0.00 100 1007.9
20260505210732 27 0.0 0.0 0.00 0.00 0.00 100 1007.8
20260505210531 28 0.0 0.0 0.00 0.00 0.00 100 1007.8
20260505210330 27 0.0 0.0 0.00 0.00 0.00 100 1007.8
20260505210129 28 0.0 0.0 0.00 0.00 0.00 100 1007.7
20260505205928 27 0.0 0.0 0.00 0.00 0.00 100 1007.7
20260505205727 27 0.0 0.0 0.00 0.00 0.00 100 1007.7
20260505205526 27 0.0 0.0 0.00 0.00 0.00 100 1007.6
20260505205325 27 0.0 0.0 0.00 0.00 0.00 100 1007.6
20260505205124 27 0.0 0.0 0.00 0.00 0.00 100 1007.5
20260505204923 27 0.0 0.0 0.00 0.00 0.00 100 1007.5
20260505204722 27 0.0 0.0 0.00 0.00 0.00 100 1007.6
20260505204521 27 0.0 0.0 0.00 0.00 0.00 100 1007.5
20260505204320 27 0.0 0.0 0.00 0.00 0.00 100 1007.6
20260505204119 27 0.0 0.0 0.00 0.00 0.00 100 1007.6
20260505203918 27 0.0 0.0 0.00 0.00 0.00 100 1007.5
20260505203717 27 0.0 0.0 0.00 0.00 0.00 100 1007.5
20260505203516 27 0.0 0.0 0.00 0.00 0.00 100 1007.6
20260505203316 27 0.0 0.0 0.00 0.00 0.00 100 1007.5
20260505203115 27 0.0 0.0 0.00 0.00 0.00 100 1007.5
20260505202914 27 0.0 0.0 0.00 0.00 0.00 100 1007.5
20260505202713 27 0.0 0.0 0.00 0.00 0.00 100 1007.5
20260505202512 27 0.0 0.0 0.00 0.00 0.00 100 1007.5
20260505202311 27 0.0 0.0 0.00 0.00 0.00 100 1007.4
20260505202110 27 0.0 0.0 0.00 0.00 0.00 100 1007.4
20260505201909 26 0.0 0.0 0.00 0.00 0.00 100 1007.4
20260505201708 27 0.0 0.0 0.00 0.00 0.00 100 1007.3
20260505201507 27 0.0 0.0 0.00 0.00 0.00 100 1007.3
20260505201306 27 0.0 0.0 0.00 0.00 0.00 100 1007.3
20260505201105 27 0.0 0.0 0.00 0.00 0.00 100 1007.3
20260505200904 27 0.0 0.0 0.00 0.00 0.00 100 1007.3
20260505200703 27 0.0 0.0 0.00 0.00 0.00 100 1007.2
20260505200502 27 0.0 0.0 0.00 0.00 0.00 100 1007.1
20260505200301 27 0.0 0.0 0.00 0.00 0.00 100 1007.1
20260505200101 27 0.0 0.0 0.00 0.00 0.00 100 1007.2
20260505195900 27 0.0 0.0 0.00 0.00 0.00 100 1007.1
20260505195659 27 0.0 0.0 0.00 0.00 0.00 100 1007.0
20260505195458 27 0.0 0.0 0.00 0.00 0.00 100 1007.0
20260505195257 27 0.0 0.0 0.00 0.00 0.00 100 1006.8
20260505195056 27 0.0 0.0 0.00 0.00 0.00 100 1006.8
20260505194855 27 0.0 0.0 0.00 0.00 0.00 100 1006.8
20260505194654 27 0.0 0.0 0.00 0.00 0.00 100 1006.7
20260505194453 27 0.0 0.0 0.00 0.00 0.00 100 1006.7
20260505194252 27 0.0 0.0 0.00 0.00 0.00 100 1006.6
20260505194051 28 0.0 0.0 0.00 0.00 0.00 100 1006.6
20260505193850 27 0.0 0.0 0.00 0.00 0.00 100 1006.5
20260505193649 27 0.0 0.0 0.00 0.00 0.00 100 1006.5
20260505193448 27 0.0 0.0 0.00 0.00 0.00 100 1006.5
20260505193247 27 0.0 0.0 0.00 0.00 0.00 100 1006.4
20260505193046 27 0.0 0.0 0.00 0.00 0.00 100 1006.4
20260505192846 27 0.0 0.0 0.00 0.00 0.00 100 1006.4
20260505192645 27 0.0 0.0 0.00 0.00 0.00 100 1006.3
20260505192444 27 0.0 0.0 0.00 0.00 0.00 100 1006.4
20260505192243 27 0.0 0.0 0.00 0.00 0.00 100 1006.3
20260505192042 27 0.0 0.0 0.00 0.00 0.00 100 1006.4
20260505191841 27 0.0 0.0 0.00 0.00 0.00 100 1006.4
20260505191640 27 0.0 0.0 0.00 0.00 0.00 100 1006.3
20260505191439 27 0.0 0.0 0.00 0.00 0.00 100 1006.2
20260505191238 27 0.0 0.0 0.00 0.00 0.00 100 1006.2
20260505191037 28 0.0 0.0 0.00 0.00 0.00 100 1006.3
20260505190836 28 0.0 0.0 0.00 0.00 0.00 100 1006.3
20260505190635 28 0.0 0.0 0.00 0.00 0.00 100 1006.3
20260505190434 28 0.0 0.0 0.00 0.00 0.00 100 1006.2
20260505190233 28 0.0 0.0 0.00 0.00 0.00 100 1006.3
20260505190032 28 0.0 0.0 0.00 0.00 0.00 100 1006.2
20260505185831 28 0.0 0.0 0.00 0.00 0.00 100 1006.3
20260505185630 27 0.0 0.0 0.00 0.00 0.00 100 1006.3
20260505185430 27 0.0 0.0 0.00 0.00 0.00 100 1006.2
20260505185229 27 0.0 0.0 0.00 0.00 0.00 100 1006.3
20260505185028 27 0.0 0.0 0.00 0.00 0.00 100 1006.3
20260505184827 27 0.0 0.0 0.00 0.00 0.00 100 1006.3
20260505184626 27 0.0 0.0 0.00 0.00 0.00 100 1006.3
20260505184425 27 0.0 0.0 0.00 0.00 0.00 100 1006.3
20260505184224 27 0.0 0.0 0.00 0.00 0.00 100 1006.3
20260505184023 28 0.0 0.0 0.00 0.00 0.00 100 1006.4
20260505183822 28 0.0 0.0 0.00 0.00 0.00 100 1006.4
20260505183621 27 0.0 0.0 0.00 0.00 0.00 100 1006.3
20260505183420 27 0.0 0.0 0.00 0.00 0.00 100 1006.3
20260505183219 27 0.0 0.0 0.00 0.00 0.00 100 1006.3
20260505183018 27 0.0 0.0 0.00 0.00 0.00 100 1006.2
20260505182817 27 0.0 0.0 0.00 0.00 0.00 100 1006.2
20260505182616 27 0.0 0.0 0.00 0.00 0.00 100 1006.3
20260505182416 27 0.0 0.0 0.00 0.00 0.00 100 1006.2
20260505182214 27 0.0 0.0 0.00 0.00 0.00 100 1006.1
20260505182013 27 0.0 0.0 0.00 0.00 0.00 100 1006.1
20260505181813 27 0.0 0.0 0.00 0.00 0.00 100 1006.0
20260505181612 27 0.0 0.0 0.00 0.00 0.00 100 1006.1
20260505181411 28 0.0 0.0 0.00 0.00 0.00 100 1006.2
20260505181210 28 0.0 0.0 0.00 0.00 0.00 100 1006.2
20260505181009 28 0.0 0.0 0.00 0.00 0.00 100 1006.2
20260505180808 27 0.0 0.0 0.00 0.00 0.00 100 1006.3
20260505180607 28 0.0 0.0 0.00 0.00 0.00 100 1006.2
20260505180406 28 0.0 0.0 0.00 0.00 0.00 100 1006.1
20260505180205 28 0.0 0.0 0.00 0.00 0.00 100 1006.1
20260505175803 28 0.0 0.0 0.00 0.00 0.00 100 1006.2
20260505175602 28 0.0 0.0 0.00 0.00 0.00 100 1006.2
20260505175401 28 0.0 0.0 0.00 0.00 0.00 100 1006.2
20260505175200 28 0.0 0.0 0.00 0.00 0.00 100 1006.2
20260505174959 28 0.0 0.0 0.00 0.00 0.00 100 1006.3
20260505174758 27 0.0 0.0 0.00 0.00 0.00 100 1006.3
20260505174557 28 0.0 0.0 0.00 0.00 0.00 100 1006.3
20260505174356 28 0.0 0.0 0.00 0.00 0.00 100 1006.3
20260505174156 28 0.0 0.0 0.00 0.00 0.00 100 1006.3
20260505173955 28 0.0 0.0 0.00 0.00 0.00 100 1006.4
20260505173754 28 0.0 0.0 0.00 0.00 0.00 100 1006.3
20260505173553 28 0.0 0.0 0.00 0.00 0.00 100 1006.4
20260505173352 28 0.0 0.0 0.00 0.00 0.00 100 1006.4
20260505173151 27 0.0 0.0 0.00 0.00 0.00 100 1006.4
20260505172950 27 0.0 0.0 0.00 0.00 0.00 100 1006.4
20260505172749 27 0.0 0.0 0.00 0.00 0.00 100 1006.5
20260505172548 28 0.0 0.0 0.00 0.00 0.00 100 1006.4
20260505172347 28 0.0 0.0 0.00 0.00 0.00 100 1006.4
20260505172146 28 0.0 0.0 0.00 0.00 0.00 100 1006.4
20260505171945 28 0.0 0.0 0.00 0.00 0.00 100 1006.4
20260505171744 28 0.0 0.0 0.00 0.00 0.00 100 1006.4
20260505171543 28 0.0 0.0 0.00 0.00 0.00 100 1006.4
20260505171342 28 0.0 0.0 0.00 0.00 0.00 100 1006.3
20260505171141 27 0.0 0.0 0.00 0.00 0.00 100 1006.3
20260505170940 27 0.0 0.0 0.00 0.00 0.00 100 1006.3
20260505170740 27 0.0 0.0 0.00 0.00 0.00 100 1006.2
20260505170539 28 0.0 0.0 0.00 0.00 0.00 100 1006.2
20260505170338 28 0.0 0.0 0.00 0.00 0.00 100 1006.1
20260505170137 28 0.0 0.0 0.00 0.00 0.00 100 1006.2
20260505165936 27 0.0 0.0 0.00 0.00 0.00 100 1006.1
20260505165735 27 0.0 0.0 0.00 0.00 0.00 100 1006.1
20260505165534 27 0.0 0.0 0.00 0.00 0.00 100 1006.2
20260505165333 27 0.0 0.0 0.00 0.00 0.00 100 1006.2
20260505165132 27 0.0 0.0 0.00 0.00 0.00 100 1006.3
20260505164931 28 0.0 0.0 0.00 0.00 0.00 100 1006.2
20260505164730 28 0.0 0.0 0.00 0.00 0.00 100 1006.2
20260505164529 28 0.0 0.0 0.00 0.00 0.00 100 1006.2
20260505164328 28 0.0 0.0 0.00 0.00 0.00 100 1006.3
20260505164127 28 0.0 0.0 0.00 0.00 0.00 100 1006.3
20260505163926 28 0.0 0.0 0.00 0.00 0.00 100 1006.4
20260505163725 28 0.0 0.0 0.00 0.00 0.00 100 1006.4
20260505163524 28 0.0 0.0 0.00 0.00 0.00 100 1006.4
20260505163324 28 0.0 0.0 0.00 0.00 0.00 100 1006.5
20260505163123 28 0.0 0.0 0.00 0.00 0.00 100 1006.5
20260505162922 27 0.0 0.0 0.00 0.00 0.00 100 1006.4
20260505162721 27 0.0 0.0 0.00 0.00 0.00 100 1006.5
20260505162520 27 0.0 0.0 0.00 0.00 0.00 100 1006.5
20260505162319 28 0.0 0.0 0.00 0.00 0.00 100 1006.5
20260505162118 28 0.0 0.0 0.00 0.00 0.00 100 1006.4
20260505161917 28 0.0 0.0 0.00 0.00 0.00 100 1006.4
20260505161716 28 0.0 0.0 0.00 0.00 0.00 100 1006.5
20260505161515 27 0.0 0.0 0.00 0.00 0.00 100 1006.6
20260505161314 27 0.0 0.0 0.00 0.00 0.00 100 1006.6
20260505161113 28 0.0 0.0 0.00 0.00 0.00 100 1006.6
20260505160912 28 0.0 0.0 0.00 0.00 0.00 100 1006.7
20260505160711 28 0.0 0.0 0.00 0.00 0.00 100 1006.6
20260505160510 28 0.0 0.0 0.00 0.00 0.00 100 1006.7
20260505160309 28 0.0 0.0 0.00 0.00 0.00 100 1006.7
20260505160108 28 0.0 0.0 0.00 0.00 0.00 100 1006.8
20260505153255 28 0.0 0.0 0.00 0.00 0.00 100 1007.1
20260505153054 28 0.0 0.0 0.00 0.00 0.00 100 1007.1
20260505152853 28 0.0 0.0 0.00 0.00 0.00 100 1007.1
20260505152653 27 0.0 0.0 0.00 0.00 0.00 100 1007.1
20260505152452 28 0.0 0.0 0.00 0.00 0.00 100 1007.2
20260505152251 28 0.0 0.0 0.00 0.00 0.00 100 1007.2
20260505152050 28 0.0 0.0 0.00 0.00 0.00 100 1007.2
20260505151849 28 0.0 0.0 0.00 0.00 0.00 100 1007.2
20260505151648 28 0.0 0.0 0.00 0.00 0.00 100 1007.3
20260505151449 28 0.0 0.0 0.00 0.00 0.00 100 1007.3
20260505151246 28 0.0 0.0 0.00 0.00 0.00 100 1007.3
20260505151045 28 0.0 0.0 0.00 0.00 0.00 100 1007.3
20260505150844 28 0.0 0.0 0.00 0.00 0.00 100 1007.3
20260505150643 28 0.0 0.0 0.00 0.00 0.00 100 1007.5
20260505150442 28 0.0 0.0 0.00 0.00 0.00 100 1007.4
20260505150241 28 0.0 0.0 0.00 0.00 0.00 100 1007.4
20260505140615 28 0.0 0.0 0.00 0.00 0.00 100 1007.6
20260505140414 27 0.0 0.0 0.00 0.00 0.00 100 1007.6
20260505140213 28 0.0 0.0 0.00 0.00 0.00 100 1007.6
20260505130145 28 0.0 0.0 0.00 0.00 0.00 100 1007.7
20260505124939 28 0.0 0.0 0.00 0.00 0.00 100 1007.7
20260505124738 28 0.0 0.0 0.00 0.00 0.00 100 1007.7
20260505124537 29 0.0 0.0 0.00 0.00 0.00 100 1007.7
20260505124336 28 0.0 0.0 0.00 0.00 0.00 100 1007.6
20260505124135 28 0.0 0.0 0.00 0.00 0.00 100 1007.6
20260505123934 28 0.0 0.0 0.00 0.00 0.00 100 1007.6
20260505123733 28 0.0 0.0 0.00 0.00 0.00 100 1007.6
20260505123532 28 0.0 0.0 0.00 0.00 0.00 100 1007.6
20260505123332 28 0.0 0.0 0.00 0.00 0.00 100 1007.6
20260505123131 28 0.0 0.0 0.00 0.00 0.00 100 1007.6
20260505122930 28 0.0 0.0 0.00 0.00 0.00 100 1007.6
20260505122729 29 0.0 0.0 0.00 0.00 0.00 100 1007.6
20260505122528 29 0.0 0.0 0.00 0.00 0.00 100 1007.7
20260505122327 29 0.0 0.0 0.00 0.00 0.00 100 1007.7
20260505122126 28 0.0 0.0 0.00 0.00 0.00 100 1007.6
20260505121925 28 0.0 0.0 0.00 0.00 0.00 100 1007.6
20260505121724 28 0.0 0.0 0.00 0.00 0.00 100 1007.7
20260505121523 28 0.0 0.0 0.00 0.00 0.00 100 1007.6
20260505121324 28 0.0 0.0 0.00 0.00 0.00 100 1007.7
20260505121121 28 0.0 0.0 0.00 0.00 0.00 100 1007.7
20260505120920 28 0.0 0.0 0.00 0.00 0.00 100 1007.7
20260505120719 28 0.0 0.0 0.00 0.00 0.00 100 1007.7
20260505120518 28 0.0 0.0 0.00 0.00 0.00 100 1007.7
20260505120317 28 0.0 0.0 0.00 0.00 0.00 100 1007.7
20260505120117 28 0.0 0.0 0.00 0.00 0.00 100 1007.7
20260505115916 30 0.0 0.0 0.00 0.00 0.00 100 1007.7
20260505115715 29 0.0 0.0 0.00 0.00 0.00 100 1007.7
20260505115514 29 0.0 0.0 0.00 0.00 0.00 100 1007.6
20260505115313 29 0.0 0.0 0.00 0.00 0.00 100 1007.7
20260505115112 29 0.0 0.0 0.00 0.00 0.00 100 1007.8
20260505114911 29 0.0 0.0 0.00 0.00 0.00 100 1007.7
20260505114710 29 0.0 0.0 0.00 0.00 0.00 100 1007.7
20260505114509 29 0.0 0.0 0.00 0.00 0.00 100 1007.7
20260505114308 30 0.0 0.0 0.00 0.00 0.00 100 1007.6
20260505114107 30 0.0 0.0 0.00 0.00 0.00 100 1007.7
20260505113906 29 0.0 0.0 0.00 0.00 0.00 100 1007.7
20260505113705 30 0.0 0.0 0.00 0.00 0.00 100 1007.7
20260505113504 29 0.0 0.0 0.00 0.00 0.00 100 1007.7
20260505113303 30 0.0 0.0 0.00 0.00 0.00 100 1007.6
20260505113102 30 0.0 0.0 0.00 0.00 0.00 100 1007.7
20260505112901 30 0.0 0.0 0.00 0.00 0.00 100 1007.7
20260505112700 29 0.0 0.0 0.00 0.00 0.00 100 1007.6
20260505112500 29 0.0 0.0 0.00 0.00 0.00 100 1007.7
20260505112259 30 0.0 0.0 0.00 0.00 0.00 100 1007.5
20260505112058 30 0.0 0.0 0.00 0.00 0.00 100 1007.6
20260505111857 30 0.0 0.0 0.00 0.00 0.00 100 1007.5
20260505111656 29 0.0 0.0 0.00 0.00 0.00 100 1007.6
20260505111455 29 0.0 0.0 0.00 0.00 0.00 100 1007.5
20260505111254 29 0.0 0.0 0.00 0.00 0.00 100 1007.6
20260505111053 29 0.0 0.0 0.00 0.00 0.00 100 1007.6
20260505110852 29 0.0 0.0 0.00 0.00 0.00 100 1007.5
20260505110651 29 0.0 0.0 0.00 0.00 0.00 100 1007.5
20260505110450 29 0.0 0.0 0.00 0.00 0.00 100 1007.5
20260505110249 29 0.0 0.0 0.00 0.00 0.00 100 1007.5